| time (UTC) | temp C | wind direction | speed KPH | gust KPH | rain 1hr cm | rain 24hr cm | rain mn cm | humidity % | barometer mb |
| 20260506155055 | 15 | 0 | 0.0 | 4.8 | 0.00 | 0.00 | 0.00 | 80 | 1021.1 |
| 20260506154556 | 15 | 236 | 1.6 | 4.8 | 0.00 | 0.00 | 0.00 | 80 | 1021.1 |
| 20260506154055 | 15 | 289 | 1.6 | 4.8 | 0.00 | 0.00 | 0.00 | 80 | 1021.1 |
| 20260506153554 | 15 | 0 | 0.0 | 4.8 | 0.00 | 0.00 | 0.00 | 81 | 1021.1 |
| 20260506153101 | 15 | 219 | 0.0 | 4.8 | 0.00 | 0.00 | 0.00 | 80 | 1021.1 |
| 20260506152555 | 15 | 0 | 0.0 | 4.8 | 0.00 | 0.00 | 0.00 | 81 | 1021.0 |
| 20260506152055 | 15 | 0 | 0.0 | 6.4 | 0.00 | 0.00 | 0.00 | 80 | 1021.0 |
| 20260506151556 | 15 | 303 | 0.0 | 6.4 | 0.00 | 0.00 | 0.00 | 80 | 1021.0 |
| 20260506151055 | 15 | 0 | 0.0 | 1.6 | 0.00 | 0.00 | 0.00 | 81 | 1021.1 |
| 20260506150555 | 15 | 0 | 0.0 | 1.6 | 0.00 | 0.00 | 0.00 | 83 | 1021.0 |
| 20260506150055 | 15 | 0 | 0.0 | 1.6 | 0.00 | 0.00 | 0.00 | 83 | 1021.0 |
| 20260506145558 | 14 | 0 | 0.0 | 1.6 | 0.00 | 0.00 | 0.00 | 83 | 1021.0 |
| 20260506145052 | 14 | 0 | 0.0 | 1.6 | 0.00 | 0.00 | 0.00 | 85 | 1021.0 |
| 20260506144555 | 14 | 0 | 0.0 | 1.6 | 0.00 | 0.00 | 0.00 | 85 | 1020.9 |
| 20260506144052 | 13 | 0 | 0.0 | 1.6 | 0.00 | 0.00 | 0.00 | 85 | 1020.9 |
| 20260506143556 | 13 | 0 | 0.0 | 0.0 | 0.00 | 0.00 | 0.00 | 85 | 1020.8 |
| 20260506143056 | 13 | 0 | 0.0 | 0.0 | 0.00 | 0.00 | 0.00 | 86 | 1020.8 |
| 20260506142556 | 13 | 0 | 0.0 | 0.0 | 0.00 | 0.00 | 0.00 | 87 | 1020.8 |
| 20260506142055 | 13 | 0 | 0.0 | 0.0 | 0.00 | 0.00 | 0.00 | 87 | 1020.8 |
| 20260506141612 | 13 | 0 | 0.0 | 0.0 | 0.00 | 0.00 | 0.00 | 87 | 1020.7 |
| 20260506141057 | 13 | 0 | 0.0 | 0.0 | 0.00 | 0.00 | 0.00 | 88 | 1020.5 |
| 20260506140558 | 13 | 0 | 0.0 | 0.0 | 0.00 | 0.00 | 0.00 | 88 | 1020.4 |
| 20260506140056 | 12 | 0 | 0.0 | 0.0 | 0.00 | 0.00 | 0.00 | 88 | 1020.4 |
| 20260506135555 | 12 | 0 | 0.0 | 0.0 | 0.00 | 0.00 | 0.00 | 87 | 1020.3 |
| 20260506135056 | 12 | 0 | 0.0 | 0.0 | 0.00 | 0.00 | 0.00 | 87 | 1020.3 |
| 20260506134558 | 12 | 0 | 0.0 | 0.0 | 0.00 | 0.00 | 0.00 | 87 | 1020.3 |
| 20260506134138 | 12 | 0 | 0.0 | 0.0 | 0.00 | 0.00 | 0.00 | 87 | 1020.2 |
| 20260506133554 | 12 | 0 | 0.0 | 0.0 | 0.00 | 0.00 | 0.00 | 87 | 1020.2 |
| 20260506133105 | 12 | 0 | 0.0 | 0.0 | 0.00 | 0.00 | 0.00 | 87 | 1020.2 |
| 20260506132555 | 12 | 0 | 0.0 | 0.0 | 0.00 | 0.00 | 0.00 | 87 | 1020.2 |
| 20260506132054 | 12 | 0 | 0.0 | 0.0 | 0.00 | 0.00 | 0.00 | 87 | 1020.1 |
| 20260506131556 | 12 | 0 | 0.0 | 0.0 | 0.00 | 0.00 | 0.00 | 87 | 1020.1 |
| 20260506131055 | 12 | 0 | 0.0 | 0.0 | 0.00 | 0.00 | 0.00 | 87 | 1020.0 |
| 20260506130556 | 12 | 0 | 0.0 | 0.0 | 0.00 | 0.00 | 0.00 | 86 | 1019.9 |
| 20260506130056 | 12 | 0 | 0.0 | 0.0 | 0.00 | 0.00 | 0.00 | 86 | 1019.9 |
| 20260506125554 | 12 | 0 | 0.0 | 0.0 | 0.00 | 0.00 | 0.00 | 86 | 1020.0 |
| 20260506125054 | 12 | 0 | 0.0 | 0.0 | 0.00 | 0.00 | 0.00 | 86 | 1020.0 |
| 20260506124555 | 12 | 0 | 0.0 | 0.0 | 0.00 | 0.00 | 0.00 | 86 | 1019.9 |
| 20260506124054 | 12 | 0 | 0.0 | 0.0 | 0.00 | 0.00 | 0.00 | 86 | 1019.7 |
| 20260506123555 | 12 | 0 | 0.0 | 0.0 | 0.00 | 0.00 | 0.00 | 86 | 1019.8 |
| 20260506123055 | 12 | 0 | 0.0 | 0.0 | 0.00 | 0.00 | 0.00 | 86 | 1019.8 |
| 20260506122556 | 12 | 0 | 0.0 | 0.0 | 0.00 | 0.00 | 0.00 | 86 | 1019.8 |
| 20260506122054 | 12 | 0 | 0.0 | 0.0 | 0.00 | 0.00 | 0.00 | 86 | 1019.8 |
| 20260506121602 | 12 | 0 | 0.0 | 0.0 | 0.00 | 0.00 | 0.00 | 86 | 1019.7 |
| 20260506121054 | 12 | 0 | 0.0 | 0.0 | 0.00 | 0.00 | 0.00 | 86 | 1019.7 |
| 20260506120555 | 12 | 0 | 0.0 | 0.0 | 0.00 | 0.00 | 0.00 | 86 | 1019.7 |
| 20260506120118 | 12 | 0 | 0.0 | 0.0 | 0.00 | 0.00 | 0.00 | 86 | 1019.7 |
| 20260506115554 | 12 | 0 | 0.0 | 0.0 | 0.00 | 0.00 | 0.00 | 86 | 1019.7 |
| 20260506115055 | 12 | 0 | 0.0 | 0.0 | 0.00 | 0.00 | 0.00 | 86 | 1019.7 |
| 20260506114600 | 12 | 0 | 0.0 | 0.0 | 0.00 | 0.00 | 0.00 | 86 | 1019.6 |
| 20260506114055 | 12 | 0 | 0.0 | 1.6 | 0.00 | 0.00 | 0.00 | 85 | 1019.5 |
| 20260506113555 | 12 | 0 | 0.0 | 3.2 | 0.00 | 0.00 | 0.00 | 85 | 1019.5 |
| 20260506113109 | 12 | 290 | 0.0 | 3.2 | 0.00 | 0.00 | 0.00 | 85 | 1019.5 |
| 20260506112555 | 12 | 0 | 0.0 | 4.8 | 0.00 | 0.00 | 0.00 | 85 | 1019.5 |
| 20260506112054 | 12 | 0 | 0.0 | 4.8 | 0.00 | 0.00 | 0.00 | 85 | 1019.4 |
| 20260506111558 | 12 | 0 | 0.0 | 4.8 | 0.00 | 0.00 | 0.00 | 85 | 1019.4 |
| 20260506111054 | 12 | 234 | 0.0 | 3.2 | 0.00 | 0.00 | 0.00 | 85 | 1019.4 |
| 20260506110556 | 12 | 0 | 0.0 | 1.6 | 0.00 | 0.00 | 0.00 | 85 | 1019.3 |
| 20260506105555 | 12 | 0 | 0.0 | 1.6 | 0.00 | 0.00 | 0.00 | 85 | 1019.3 |
| 20260506105055 | 12 | 0 | 0.0 | 3.2 | 0.00 | 0.00 | 0.00 | 85 | 1019.3 |
| 20260506104555 | 12 | 0 | 0.0 | 3.2 | 0.00 | 0.00 | 0.00 | 85 | 1019.3 |
| 20260506104055 | 12 | 0 | 0.0 | 1.6 | 0.00 | 0.00 | 0.00 | 85 | 1019.3 |
| 20260506103555 | 12 | 0 | 0.0 | 1.6 | 0.00 | 0.00 | 0.00 | 85 | 1019.3 |
| 20260506103057 | 12 | 0 | 0.0 | 3.2 | 0.00 | 0.00 | 0.00 | 85 | 1019.3 |
| 20260506102555 | 12 | 0 | 0.0 | 3.2 | 0.00 | 0.00 | 0.00 | 85 | 1019.3 |
| 20260506102055 | 12 | 298 | 0.0 | 4.8 | 0.00 | 0.00 | 0.00 | 85 | 1019.3 |
| 20260506101556 | 12 | 0 | 0.0 | 4.8 | 0.00 | 0.00 | 0.00 | 85 | 1019.2 |
| 20260506101054 | 12 | 0 | 0.0 | 3.2 | 0.00 | 0.00 | 0.00 | 85 | 1019.2 |
| 20260506100555 | 12 | 308 | 0.0 | 3.2 | 0.00 | 0.00 | 0.00 | 85 | 1019.2 |
| 20260506100057 | 12 | 0 | 0.0 | 3.2 | 0.00 | 0.00 | 0.00 | 85 | 1019.2 |
| 20260506095555 | 12 | 0 | 0.0 | 3.2 | 0.00 | 0.03 | 0.00 | 86 | 1019.3 |
| 20260506095055 | 12 | 0 | 0.0 | 3.2 | 0.00 | 0.03 | 0.00 | 86 | 1019.3 |
| 20260506094555 | 12 | 307 | 0.0 | 4.8 | 0.00 | 0.03 | 0.00 | 86 | 1019.3 |
| 20260506094054 | 12 | 307 | 0.0 | 4.8 | 0.00 | 0.03 | 0.00 | 86 | 1019.3 |
| 20260506093554 | 12 | 286 | 0.0 | 4.8 | 0.00 | 0.03 | 0.00 | 87 | 1019.3 |
| 20260506093058 | 12 | 0 | 0.0 | 0.0 | 0.00 | 0.03 | 0.00 | 87 | 1019.3 |
| 20260506092556 | 12 | 0 | 0.0 | 0.0 | 0.00 | 0.03 | 0.00 | 87 | 1019.3 |
| 20260506092056 | 12 | 0 | 0.0 | 0.0 | 0.00 | 0.03 | 0.00 | 87 | 1019.3 |
| 20260506091559 | 12 | 0 | 0.0 | 0.0 | 0.00 | 0.03 | 0.00 | 87 | 1019.2 |
| 20260506091054 | 12 | 0 | 0.0 | 0.0 | 0.00 | 0.03 | 0.00 | 86 | 1019.4 |
| 20260506090554 | 12 | 0 | 0.0 | 0.0 | 0.00 | 0.03 | 0.00 | 86 | 1019.2 |
| 20260506090058 | 12 | 0 | 0.0 | 0.0 | 0.00 | 0.03 | 0.00 | 86 | 1019.2 |
| 20260506085554 | 12 | 0 | 0.0 | 0.0 | 0.00 | 0.13 | 0.00 | 85 | 1019.3 |
| 20260506085055 | 12 | 0 | 0.0 | 0.0 | 0.00 | 0.13 | 0.00 | 85 | 1019.2 |
| 20260506084555 | 12 | 0 | 0.0 | 0.0 | 0.00 | 0.13 | 0.00 | 85 | 1019.3 |
| 20260506084055 | 12 | 0 | 0.0 | 1.6 | 0.00 | 0.13 | 0.00 | 85 | 1019.3 |
| 20260506083554 | 12 | 0 | 0.0 | 3.2 | 0.00 | 0.13 | 0.00 | 85 | 1019.2 |
| 20260506083057 | 12 | 0 | 0.0 | 3.2 | 0.00 | 0.13 | 0.00 | 85 | 1019.3 |
| 20260506082555 | 12 | 0 | 0.0 | 3.2 | 0.00 | 0.13 | 0.00 | 85 | 1019.4 |
| 20260506082055 | 12 | 0 | 0.0 | 3.2 | 0.00 | 0.13 | 0.00 | 85 | 1019.4 |
| 20260506081556 | 12 | 0 | 0.0 | 3.2 | 0.00 | 0.13 | 0.00 | 85 | 1019.4 |
| 20260506081055 | 13 | 0 | 0.0 | 4.8 | 0.00 | 0.13 | 0.00 | 85 | 1019.4 |
| 20260506080556 | 13 | 0 | 0.0 | 4.8 | 0.00 | 0.13 | 0.00 | 85 | 1019.4 |
| 20260506073104 | 13 | 0 | 0.0 | 6.4 | 0.00 | 0.28 | 0.00 | 84 | 1019.1 |
| 20260506072557 | 13 | 0 | 0.0 | 6.4 | 0.00 | 0.28 | 0.00 | 84 | 1019.0 |
| 20260506072053 | 13 | 0 | 0.0 | 6.4 | 0.00 | 0.28 | 0.00 | 84 | 1019.1 |
| 20260506071556 | 13 | 0 | 1.6 | 4.8 | 0.00 | 0.28 | 0.00 | 84 | 1019.1 |
| 20260506071053 | 13 | 0 | 0.0 | 4.8 | 0.00 | 0.28 | 0.00 | 85 | 1019.0 |
| 20260506070555 | 13 | 0 | 0.0 | 4.8 | 0.00 | 0.28 | 0.00 | 85 | 1018.9 |
| 20260506070116 | 13 | 0 | 0.0 | 6.4 | 0.00 | 0.28 | 0.00 | 85 | 1018.9 |
| 20260506062058 | 12 | 0 | 0.0 | 4.8 | 0.00 | 0.33 | 0.28 | 86 | 1018.7 |
| 20260506061601 | 13 | 0 | 0.0 | 6.4 | 0.00 | 0.33 | 0.28 | 86 | 1018.6 |
| 20260506061056 | 13 | 0 | 0.0 | 6.4 | 0.00 | 0.33 | 0.28 | 86 | 1018.6 |
| 20260506060556 | 13 | 0 | 0.0 | 6.4 | 0.00 | 0.33 | 0.28 | 86 | 1018.7 |
| 20260506051054 | 13 | 223 | 1.6 | 9.7 | 0.00 | 0.43 | 0.28 | 88 | 1018.4 |
| 20260506050555 | 13 | 224 | 3.2 | 9.7 | 0.00 | 0.43 | 0.28 | 89 | 1018.4 |
| 20260506050113 | 13 | 0 | 1.6 | 11.3 | 0.00 | 0.43 | 0.28 | 89 | 1018.4 |
| 20260506045056 | 13 | 232 | 3.2 | 9.7 | 0.00 | 0.51 | 0.28 | 89 | 1018.3 |
| 20260506044600 | 13 | 231 | 1.6 | 11.3 | 0.00 | 0.51 | 0.28 | 89 | 1018.3 |
| 20260506044054 | 13 | 246 | 1.6 | 11.3 | 0.00 | 0.51 | 0.28 | 89 | 1018.1 |
| 20260506043556 | 13 | 227 | 1.6 | 11.3 | 0.00 | 0.51 | 0.28 | 89 | 1018.1 |
| 20260506043057 | 13 | 0 | 1.6 | 11.3 | 0.00 | 0.51 | 0.28 | 89 | 1018.0 |
| 20260506042553 | 13 | 271 | 1.6 | 8.0 | 0.00 | 0.51 | 0.28 | 90 | 1018.0 |
| 20260506042054 | 13 | 0 | 0.0 | 6.4 | 0.00 | 0.51 | 0.28 | 89 | 1017.9 |
| 20260506041556 | 13 | 0 | 0.0 | 8.0 | 0.00 | 0.51 | 0.28 | 89 | 1017.8 |
| 20260506041055 | 13 | 200 | 0.0 | 8.0 | 0.00 | 0.51 | 0.28 | 89 | 1017.8 |
| 20260506040552 | 13 | 0 | 1.6 | 8.0 | 0.00 | 0.51 | 0.28 | 89 | 1017.8 |
| 20260506040100 | 13 | 236 | 0.0 | 6.4 | 0.00 | 0.51 | 0.28 | 90 | 1017.7 |
| 20260506035555 | 13 | 215 | 1.6 | 6.4 | 0.00 | 0.51 | 0.28 | 89 | 1017.6 |
| 20260506035054 | 13 | 0 | 0.0 | 8.0 | 0.00 | 0.51 | 0.28 | 89 | 1017.5 |
| 20260506034600 | 13 | 192 | 1.6 | 8.0 | 0.00 | 0.51 | 0.28 | 89 | 1017.5 |
| 20260506034054 | 13 | 246 | 1.6 | 16.1 | 0.00 | 0.51 | 0.28 | 89 | 1017.3 |
| 20260506033555 | 13 | 0 | 3.2 | 16.1 | 0.00 | 0.51 | 0.28 | 89 | 1017.2 |
| 20260506033103 | 13 | 214 | 0.0 | 12.9 | 0.00 | 0.51 | 0.28 | 89 | 1017.2 |
| 20260506032555 | 13 | 278 | 1.6 | 12.9 | 0.00 | 0.51 | 0.28 | 88 | 1017.2 |
| 20260506032056 | 13 | 215 | 3.2 | 12.9 | 0.00 | 0.51 | 0.28 | 88 | 1017.1 |
| 20260506031601 | 13 | 0 | 3.2 | 12.9 | 0.00 | 0.51 | 0.28 | 88 | 1017.0 |
| 20260506031056 | 13 | 214 | 1.6 | 11.3 | 0.00 | 0.51 | 0.28 | 88 | 1016.9 |
| 20260506030554 | 13 | 0 | 1.6 | 11.3 | 0.00 | 0.51 | 0.28 | 87 | 1016.8 |
| 20260506030113 | 13 | 264 | 3.2 | 16.1 | 0.00 | 0.51 | 0.28 | 87 | 1016.8 |
| 20260506025554 | 13 | 229 | 3.2 | 16.1 | 0.00 | 0.51 | 0.28 | 87 | 1016.7 |
| 20260506025054 | 13 | 245 | 4.8 | 12.9 | 0.00 | 0.51 | 0.28 | 86 | 1016.7 |
| 20260506024557 | 13 | 249 | 4.8 | 16.1 | 0.00 | 0.51 | 0.28 | 86 | 1016.8 |
| 20260506024054 | 13 | 240 | 3.2 | 16.1 | 0.00 | 0.51 | 0.28 | 86 | 1016.8 |
| 20260506023555 | 13 | 231 | 1.6 | 16.1 | 0.00 | 0.51 | 0.28 | 86 | 1016.8 |
| 20260506023056 | 13 | 190 | 3.2 | 16.1 | 0.00 | 0.51 | 0.28 | 86 | 1016.7 |
| 20260506022555 | 14 | 258 | 4.8 | 14.5 | 0.00 | 0.51 | 0.28 | 86 | 1016.6 |
| 20260506022056 | 14 | 216 | 3.2 | 16.1 | 0.00 | 0.51 | 0.28 | 86 | 1016.7 |
| 20260506021558 | 14 | 212 | 4.8 | 16.1 | 0.00 | 0.51 | 0.28 | 85 | 1016.6 |
| 20260506021056 | 14 | 240 | 4.8 | 16.1 | 0.00 | 0.51 | 0.28 | 85 | 1016.5 |
| 20260506020556 | 14 | 219 | 1.6 | 12.9 | 0.00 | 0.51 | 0.28 | 85 | 1016.5 |
| 20260506020056 | 14 | 319 | 3.2 | 19.3 | 0.00 | 0.51 | 0.28 | 84 | 1016.4 |
| 20260506015555 | 14 | 0 | 4.8 | 19.3 | 0.00 | 0.51 | 0.28 | 84 | 1016.4 |
| 20260506015055 | 15 | 228 | 4.8 | 17.7 | 0.00 | 0.51 | 0.28 | 83 | 1016.4 |
| 20260506014600 | 15 | 210 | 3.2 | 20.9 | 0.00 | 0.51 | 0.28 | 84 | 1016.3 |
| 20260506014056 | 14 | 273 | 4.8 | 20.9 | 0.00 | 0.51 | 0.28 | 83 | 1016.3 |
| 20260506013554 | 15 | 271 | 3.2 | 16.1 | 0.00 | 0.51 | 0.28 | 83 | 1016.2 |
| 20260506013100 | 15 | 40 | 3.2 | 16.1 | 0.00 | 0.51 | 0.28 | 84 | 1016.2 |
| 20260506012556 | 15 | 234 | 3.2 | 17.7 | 0.00 | 0.51 | 0.28 | 84 | 1016.3 |
| 20260506012056 | 15 | 197 | 6.4 | 17.7 | 0.00 | 0.51 | 0.28 | 83 | 1016.3 |
| 20260506011558 | 15 | 219 | 3.2 | 16.1 | 0.00 | 0.51 | 0.28 | 83 | 1016.4 |
| 20260506011054 | 14 | 229 | 4.8 | 17.7 | 0.00 | 0.51 | 0.28 | 82 | 1016.4 |
| 20260506010555 | 15 | 255 | 4.8 | 17.7 | 0.00 | 0.51 | 0.28 | 82 | 1016.4 |
| 20260506010058 | 15 | 238 | 1.6 | 16.1 | 0.00 | 0.51 | 0.28 | 83 | 1016.3 |
| 20260506005556 | 15 | 269 | 4.8 | 11.3 | 0.00 | 0.51 | 0.28 | 83 | 1016.3 |
| 20260506005054 | 15 | 236 | 3.2 | 14.5 | 0.00 | 0.51 | 0.28 | 83 | 1016.3 |
| 20260506004628 | 15 | 230 | 4.8 | 14.5 | 0.00 | 0.51 | 0.28 | 83 | 1016.3 |
| 20260506004055 | 15 | 300 | 4.8 | 14.5 | 0.00 | 0.51 | 0.28 | 83 | 1016.2 |
| 20260506003555 | 15 | 284 | 3.2 | 14.5 | 0.00 | 0.51 | 0.28 | 83 | 1016.2 |
| 20260506003059 | 15 | 286 | 4.8 | 16.1 | 0.00 | 0.51 | 0.28 | 82 | 1016.0 |
| 20260506002555 | 15 | 304 | 3.2 | 16.1 | 0.00 | 0.51 | 0.28 | 83 | 1016.0 |
| 20260506002059 | 15 | 240 | 3.2 | 20.9 | 0.00 | 0.51 | 0.28 | 84 | 1016.1 |
| 20260506001604 | 15 | 221 | 4.8 | 20.9 | 0.00 | 0.51 | 0.28 | 84 | 1016.0 |
| 20260506001055 | 15 | 319 | 4.8 | 17.7 | 0.00 | 0.51 | 0.28 | 84 | 1016.0 |
| 20260506000555 | 15 | 222 | 6.4 | 17.7 | 0.00 | 0.51 | 0.28 | 84 | 1015.9 |
| 20260506000056 | 14 | 0 | 4.8 | 17.7 | 0.00 | 0.51 | 0.28 | 85 | 1016.0 |
| 20260505235554 | 14 | 213 | 3.2 | 16.1 | 0.00 | 0.51 | 0.28 | 85 | 1016.0 |
| 20260505235054 | 14 | 248 | 4.8 | 16.1 | 0.00 | 0.51 | 0.28 | 85 | 1016.0 |
| 20260505234614 | 14 | 273 | 3.2 | 16.1 | 0.00 | 0.51 | 0.28 | 85 | 1016.1 |
| 20260505234055 | 14 | 239 | 4.8 | 22.5 | 0.00 | 0.51 | 0.28 | 86 | 1016.1 |
| 20260505233554 | 14 | 288 | 4.8 | 22.5 | 0.00 | 0.51 | 0.28 | 86 | 1016.0 |
| 20260505233057 | 14 | 200 | 6.4 | 17.7 | 0.00 | 0.51 | 0.28 | 86 | 1016.0 |
| 20260505232555 | 14 | 235 | 4.8 | 19.3 | 0.00 | 0.51 | 0.28 | 86 | 1016.1 |
| 20260505232055 | 14 | 222 | 6.4 | 19.3 | 0.00 | 0.51 | 0.28 | 85 | 1016.1 |
| 20260505231559 | 15 | 243 | 3.2 | 17.7 | 0.00 | 0.51 | 0.28 | 86 | 1016.0 |
| 20260505231054 | 14 | 186 | 6.4 | 17.7 | 0.00 | 0.51 | 0.28 | 85 | 1016.1 |
| 20260505230555 | 15 | 263 | 3.2 | 17.7 | 0.00 | 0.51 | 0.28 | 86 | 1016.1 |
| 20260505230053 | 15 | 170 | 4.8 | 17.7 | 0.00 | 0.51 | 0.28 | 85 | 1016.0 |
| 20260505225555 | 15 | 211 | 6.4 | 19.3 | 0.00 | 0.51 | 0.28 | 84 | 1016.0 |
| 20260505225055 | 15 | 295 | 3.2 | 19.3 | 0.00 | 0.51 | 0.28 | 84 | 1016.0 |
| 20260505224556 | 15 | 224 | 3.2 | 14.5 | 0.00 | 0.51 | 0.28 | 84 | 1016.0 |
| 20260505224054 | 15 | 219 | 4.8 | 19.3 | 0.00 | 0.51 | 0.28 | 83 | 1016.0 |
| 20260505223554 | 15 | 0 | 3.2 | 19.3 | 0.00 | 0.51 | 0.28 | 84 | 1016.0 |
| 20260505223103 | 15 | 269 | 1.6 | 16.1 | 0.00 | 0.51 | 0.28 | 83 | 1015.9 |
| 20260505222554 | 15 | 305 | 4.8 | 16.1 | 0.00 | 0.51 | 0.28 | 83 | 1016.0 |
| 20260505222054 | 15 | 241 | 3.2 | 14.5 | 0.00 | 0.51 | 0.28 | 84 | 1016.0 |
| 20260505221613 | 15 | 289 | 6.4 | 14.5 | 0.00 | 0.51 | 0.28 | 83 | 1016.0 |
| 20260505221054 | 16 | 193 | 4.8 | 14.5 | 0.00 | 0.51 | 0.28 | 82 | 1016.1 |
| 20260505220558 | 16 | 285 | 1.6 | 14.5 | 0.00 | 0.51 | 0.28 | 84 | 1016.1 |
| 20260505220133 | 16 | 316 | 6.4 | 14.5 | 0.00 | 0.51 | 0.28 | 82 | 1016.1 |
| 20260505215554 | 16 | 293 | 3.2 | 12.9 | 0.00 | 0.51 | 0.28 | 82 | 1016.1 |
| 20260505215055 | 16 | 0 | 3.2 | 20.9 | 0.00 | 0.51 | 0.28 | 83 | 1016.2 |
| 20260505214617 | 15 | 230 | 3.2 | 20.9 | 0.00 | 0.51 | 0.28 | 83 | 1016.2 |
| 20260505214055 | 15 | 244 | 4.8 | 17.7 | 0.00 | 0.51 | 0.28 | 83 | 1016.2 |
| 20260505213558 | 15 | 232 | 3.2 | 17.7 | 0.00 | 0.51 | 0.28 | 83 | 1016.2 |
| 20260505213057 | 15 | 250 | 3.2 | 16.1 | 0.00 | 0.51 | 0.28 | 84 | 1016.3 |
| 20260505212554 | 15 | 234 | 3.2 | 14.5 | 0.00 | 0.51 | 0.28 | 84 | 1016.4 |
| 20260505212056 | 15 | 227 | 3.2 | 14.5 | 0.00 | 0.51 | 0.28 | 84 | 1016.3 |
| 20260505211613 | 15 | 273 | 1.6 | 14.5 | 0.00 | 0.51 | 0.28 | 83 | 1016.4 |
| 20260505211055 | 15 | 254 | 4.8 | 14.5 | 0.00 | 0.51 | 0.28 | 83 | 1016.3 |
| 20260505210554 | 15 | 232 | 0.0 | 16.1 | 0.00 | 0.51 | 0.28 | 84 | 1016.3 |
| 20260505210053 | 15 | 217 | 4.8 | 16.1 | 0.00 | 0.51 | 0.28 | 83 | 1016.3 |
| 20260505205552 | 15 | 347 | 1.6 | 11.3 | 0.00 | 0.51 | 0.28 | 83 | 1016.3 |
| 20260505205055 | 15 | 231 | 3.2 | 16.1 | 0.00 | 0.51 | 0.28 | 83 | 1016.3 |
| 20260505204555 | 15 | 257 | 3.2 | 16.1 | 0.00 | 0.51 | 0.28 | 83 | 1016.3 |
| 20260505204056 | 15 | 219 | 3.2 | 16.1 | 0.00 | 0.51 | 0.28 | 83 | 1016.3 |
| 20260505203555 | 15 | 239 | 6.4 | 16.1 | 0.00 | 0.51 | 0.28 | 82 | 1016.3 |
| 20260505203104 | 15 | 254 | 3.2 | 11.3 | 0.00 | 0.51 | 0.28 | 82 | 1016.3 |
| 20260505202555 | 15 | 212 | 3.2 | 11.3 | 0.00 | 0.51 | 0.28 | 82 | 1016.3 |
| 20260505202057 | 15 | 270 | 1.6 | 11.3 | 0.00 | 0.51 | 0.28 | 82 | 1016.4 |
| 20260505201608 | 15 | 244 | 1.6 | 14.5 | 0.00 | 0.51 | 0.28 | 82 | 1016.4 |
| 20260505201055 | 15 | 0 | 3.2 | 16.1 | 0.00 | 0.51 | 0.28 | 83 | 1016.4 |
| 20260505200555 | 15 | 209 | 3.2 | 16.1 | 0.00 | 0.51 | 0.28 | 83 | 1016.4 |
| 20260505200104 | 15 | 282 | 4.8 | 16.1 | 0.00 | 0.51 | 0.28 | 83 | 1016.4 |
| 20260505195555 | 15 | 221 | 4.8 | 12.9 | 0.00 | 0.51 | 0.28 | 83 | 1016.4 |
| 20260505195055 | 15 | 0 | 4.8 | 11.3 | 0.00 | 0.51 | 0.28 | 84 | 1016.4 |
| 20260505194603 | 15 | 224 | 3.2 | 11.3 | 0.00 | 0.51 | 0.28 | 85 | 1016.4 |
| 20260505194055 | 15 | 232 | 3.2 | 11.3 | 0.00 | 0.51 | 0.28 | 86 | 1016.4 |
| 20260505193555 | 15 | 0 | 1.6 | 14.5 | 0.00 | 0.51 | 0.28 | 85 | 1016.4 |
| 20260505193056 | 15 | 238 | 3.2 | 14.5 | 0.00 | 0.51 | 0.28 | 86 | 1016.5 |
| 20260505192555 | 15 | 247 | 1.6 | 11.3 | 0.00 | 0.51 | 0.28 | 86 | 1016.5 |
| 20260505192057 | 15 | 292 | 4.8 | 11.3 | 0.00 | 0.51 | 0.28 | 86 | 1016.5 |
| 20260505191555 | 15 | 269 | 3.2 | 11.3 | 0.00 | 0.51 | 0.28 | 86 | 1016.4 |
| 20260505191055 | 15 | 250 | 1.6 | 11.3 | 0.00 | 0.51 | 0.28 | 86 | 1016.5 |
| 20260505190554 | 15 | 209 | 3.2 | 11.3 | 0.00 | 0.51 | 0.28 | 86 | 1016.5 |
| 20260505190100 | 15 | 223 | 1.6 | 11.3 | 0.00 | 0.51 | 0.28 | 86 | 1016.5 |
| 20260505185555 | 15 | 247 | 1.6 | 11.3 | 0.00 | 0.51 | 0.28 | 86 | 1016.3 |
| 20260505185056 | 14 | 256 | 3.2 | 8.0 | 0.00 | 0.51 | 0.28 | 86 | 1016.2 |
| 20260505184559 | 15 | 220 | 3.2 | 8.0 | 0.00 | 0.51 | 0.28 | 86 | 1016.3 |
| 20260505184053 | 15 | 229 | 1.6 | 6.4 | 0.00 | 0.51 | 0.28 | 87 | 1016.3 |
| 20260505183552 | 14 | 198 | 1.6 | 6.4 | 0.00 | 0.51 | 0.28 | 88 | 1016.3 |
| 20260505183052 | 14 | 247 | 1.6 | 8.0 | 0.00 | 0.51 | 0.28 | 88 | 1016.3 |
| 20260505182551 | 14 | 226 | 1.6 | 9.7 | 0.00 | 0.51 | 0.28 | 88 | 1016.3 |
| 20260505182054 | 14 | 249 | 1.6 | 9.7 | 0.00 | 0.51 | 0.28 | 88 | 1016.4 |
| 20260505181552 | 14 | 217 | 1.6 | 8.0 | 0.00 | 0.51 | 0.28 | 88 | 1016.3 |
| 20260505181055 | 14 | 246 | 1.6 | 8.0 | 0.00 | 0.51 | 0.28 | 87 | 1016.2 |
| 20260505180553 | 13 | 244 | 0.0 | 12.9 | 0.00 | 0.51 | 0.28 | 87 | 1016.2 |
| 20260505180054 | 13 | 298 | 4.8 | 12.9 | 0.00 | 0.51 | 0.28 | 86 | 1016.2 |
| 20260505175551 | 13 | 293 | 1.6 | 11.3 | 0.00 | 0.51 | 0.28 | 86 | 1016.2 |
| 20260505175054 | 13 | 290 | 1.6 | 14.5 | 0.00 | 0.51 | 0.28 | 87 | 1016.2 |
| 20260505174552 | 13 | 323 | 3.2 | 14.5 | 0.00 | 0.51 | 0.28 | 87 | 1016.1 |
| 20260505174054 | 13 | 215 | 3.2 | 11.3 | 0.00 | 0.51 | 0.28 | 88 | 1016.0 |
| 20260505173554 | 13 | 0 | 1.6 | 11.3 | 0.00 | 0.51 | 0.28 | 89 | 1015.9 |
| 20260505173053 | 13 | 0 | 1.6 | 8.0 | 0.00 | 0.51 | 0.28 | 90 | 1016.0 |
| 20260505172550 | 13 | 288 | 1.6 | 6.4 | 0.00 | 0.51 | 0.28 | 90 | 1016.0 |
| 20260505172053 | 13 | 291 | 0.0 | 8.0 | 0.00 | 0.51 | 0.28 | 91 | 1015.9 |
| 20260505171553 | 13 | 0 | 0.0 | 8.0 | 0.00 | 0.51 | 0.28 | 92 | 1015.9 |
| 20260505171053 | 13 | 0 | 1.6 | 8.0 | 0.00 | 0.51 | 0.28 | 92 | 1015.9 |
| 20260505170554 | 13 | 0 | 1.6 | 8.0 | 0.00 | 0.51 | 0.28 | 93 | 1016.0 |
| 20260505170100 | 13 | 266 | 1.6 | 8.0 | 0.00 | 0.51 | 0.28 | 93 | 1016.0 |
| 20260505165554 | 13 | 232 | 0.0 | 11.3 | 0.00 | 0.51 | 0.28 | 94 | 1016.0 |
| 20260505165053 | 13 | 284 | 1.6 | 11.3 | 0.00 | 0.51 | 0.28 | 94 | 1015.9 |
| 20260505164611 | 12 | 317 | 1.6 | 8.0 | 0.00 | 0.51 | 0.28 | 94 | 1015.9 |
| 20260505164052 | 12 | 0 | 1.6 | 9.7 | 0.00 | 0.51 | 0.28 | 94 | 1015.9 |
| 20260505163551 | 12 | 310 | 0.0 | 9.7 | 0.00 | 0.51 | 0.28 | 94 | 1016.0 |
| 20260505163057 | 12 | 292 | 1.6 | 6.4 | 0.00 | 0.51 | 0.28 | 95 | 1015.9 |
| 20260505162553 | 12 | 0 | 0.0 | 4.8 | 0.00 | 0.51 | 0.28 | 95 | 1016.0 |
| 20260505162052 | 12 | 0 | 0.0 | 4.8 | 0.00 | 0.51 | 0.28 | 95 | 1015.9 |
| 20260505161558 | 12 | 0 | 0.0 | 4.8 | 0.00 | 0.51 | 0.28 | 95 | 1015.9 |
| 20260505161052 | 12 | 0 | 0.0 | 4.8 | 0.00 | 0.51 | 0.28 | 95 | 1015.9 |
| 20260505160552 | 12 | 232 | 0.0 | 4.8 | 0.00 | 0.51 | 0.28 | 95 | 1015.7 |
| 20260505160107 | 12 | 213 | 0.0 | 4.8 | 0.00 | 0.51 | 0.28 | 95 | 1015.8 |